Frankfort, MI

9:36 AM EST on November 20, 2017 (GMT -0500)
Frankfort

Weather History for KFKS - February, 2013

Change the Weather History Date:

Wednesday, February 20, 2013

  Actual Average (KMBL) Record (KMBL)
Temperature  
Mean Temperature 18 °F -  
Max Temperature 22 °F 34 °F 56 °F (1983)
Min Temperature 16 °F 18 °F -16 °F (2015)
Degree Days  
Heating Degree Days 46    
Moisture  
Dew Point 12 °F    
Average Humidity 75    
Maximum Humidity 84    
Minimum Humidity 68    
Precipitation  
Precipitation 0.00 in - - ()
Sea Level Pressure  
Sea Level Pressure 30.12 in    
Wind  
Wind Speed 15 mph (NNW)    
Max Wind Speed 22 mph    
Max Gust Speed 33 mph    
Visibility 3 miles    
Events Snow    
Averages and records for this station are not official NWS values.
T = Trace of Precipitation, MM = Missing Value Source: NWS Daily Summary

Daily Weather History Graph

Daily Weather History Graph

Search for Another Location

Airport or City:

Trip Planner

Search our weather history database for the weather conditions in past years. The results will help you decide how hot, cold, wet, or windy it might be!

Date:

Astronomy

Feb. 20, 2013 Rise Set
Actual Time 7:36 AM EST 6:20 PM EST
Civil Twilight 7:07 AM EST 6:50 PM EST
Nautical Twilight 6:33 AM EST 7:24 PM EST
Astronomical Twilight 5:59 AM EST 7:58 PM EST
Moon 1:34 PM EST 4:04 AM EST
Length of Visible Light 11h 43m
Length of Day
10h 43m
Waxing Gibbous, 76% of the Moon is Illuminated
Feb 20
Waxing Gibbous
Feb 25
Full
Mar 4
Last Quarter
Mar 11
New
Mar 19
First Quarter

Hourly Weather History & Observations

Time (EST) Temp. Windchill Dew Point Humidity Pressure Visibility Wind Dir Wind Speed Gust Speed Precip Events Conditions
12:12 AM 16.3 °F 0.1 °F 9.0 °F 73% 29.94 in 4.0 mi NW 18.4 mph 25.3 mph N/A Snow Light Snow
12:32 AM 16.7 °F -0.7 °F 8.2 °F 69% 29.94 in 7.0 mi NW 21.9 mph 33.4 mph N/A   Overcast
12:52 AM 16.7 °F 2.0 °F 8.1 °F 69% 29.95 in 5.0 mi NW 15.0 mph 26.5 mph N/A   Haze
1:33 AM 16.7 °F 1.5 °F 10.4 °F 76% 29.96 in 3.0 mi NW 16.1 mph 23.0 mph N/A Snow Light Snow
2:13 AM 16.7 °F 3.2 °F 10.6 °F 77% 29.98 in 2.0 mi NNW 12.7 mph 29.9 mph N/A Snow Light Snow
2:33 AM 16.7 °F 1.5 °F 10.8 °F 77% 29.98 in 1.8 mi NNW 16.1 mph 28.8 mph N/A Snow Light Snow
3:13 AM 16.7 °F 0.5 °F 10.2 °F 76% 29.99 in 2.0 mi NW 18.4 mph 32.2 mph N/A Snow Light Snow
3:33 AM 16.7 °F 1.5 °F 10.0 °F 75% 30.00 in 2.5 mi NW 16.1 mph 29.9 mph N/A Snow Light Snow
3:53 AM 16.7 °F 1.5 °F 9.9 °F 74% 30.00 in 2.5 mi NW 16.1 mph 25.3 mph N/A Snow Light Snow
4:14 AM 16.7 °F 3.2 °F 10.4 °F 76% 30.01 in 2.5 mi NNW 12.7 mph 27.6 mph N/A Snow Light Snow
4:34 AM 16.7 °F -0.3 °F 10.2 °F 76% 30.02 in 2.0 mi NW 20.7 mph 26.5 mph N/A Snow Light Snow
4:54 AM 16.7 °F 5.3 °F 9.0 °F 72% 30.04 in 4.0 mi NNW 9.2 mph 27.6 mph N/A Snow Light Snow
5:14 AM 16.7 °F 2.6 °F 8.4 °F 70% 30.05 in 4.0 mi NW 13.8 mph 31.1 mph N/A Snow Light Snow
5:34 AM 16.7 °F 1.0 °F 9.3 °F 73% 30.06 in 3.0 mi NNW 17.3 mph 27.6 mph N/A Snow Light Snow
5:54 AM 16.7 °F 4.5 °F 7.7 °F 68% 30.07 in 5.0 mi NNW 10.4 mph 27.6 mph N/A   Haze
6:14 AM 16.7 °F 1.0 °F 9.1 °F 72% 30.07 in 5.0 mi NW 17.3 mph 24.2 mph N/A Snow Light Snow
6:34 AM 16.7 °F 1.5 °F 9.7 °F 74% 30.08 in 2.5 mi NNW 16.1 mph 29.9 mph N/A Snow Light Snow
7:15 AM 16.7 °F 1.0 °F 9.1 °F 72% 30.09 in 3.0 mi NW 17.3 mph 31.1 mph N/A Snow Light Snow
7:35 AM 16.7 °F 1.0 °F 9.1 °F 72% 30.10 in 4.0 mi NW 17.3 mph 33.4 mph N/A   Haze
8:15 AM 16.7 °F 0.5 °F 9.3 °F 73% 30.12 in 2.5 mi NNW 18.4 mph 28.8 mph N/A Snow Light Snow
9:15 AM 17.6 °F 5.7 °F 9.9 °F 72% 30.14 in 5.0 mi NNW 10.4 mph 24.2 mph N/A Snow Light Snow
9:35 AM 17.8 °F 3.4 °F 10.8 °F 74% 30.14 in 2.5 mi NNW 15.0 mph 25.3 mph N/A Snow Light Snow
10:16 AM 18.3 °F 4.1 °F 11.8 °F 76% 30.15 in 2.0 mi NNW 15.0 mph 23.0 mph N/A Snow Light Snow
10:36 AM 18.9 °F 5.3 °F 11.1 °F 72% 30.15 in 4.0 mi NNW 13.8 mph 24.2 mph N/A Snow Light Snow
10:56 AM 19.9 °F 6.7 °F 12.4 °F 72% 30.15 in 4.0 mi NNW 13.8 mph 27.6 mph N/A Snow Light Snow
11:11 AM 19.8 °F 8.3 °F 12.2 °F 72% 30.15 in 4.0 mi North 10.4 mph 27.6 mph N/A Snow Light Snow
11:31 AM 19.9 °F 7.3 °F 12.7 °F 74% 30.17 in 5.0 mi NNW 12.7 mph 20.7 mph N/A Snow Light Snow
11:51 AM 20.1 °F 8.8 °F 13.1 °F 74% 30.17 in 3.0 mi North 10.4 mph - N/A Snow Light Snow
12:11 PM 19.8 °F 7.7 °F 15.1 °F 82% 30.17 in 0.5 mi NNW 11.5 mph 19.6 mph N/A Snow Light Snow
12:31 PM 20.3 °F 7.7 °F 15.1 °F 80% 30.17 in 1.0 mi NNW 12.7 mph 19.6 mph N/A Snow Light Snow
12:52 PM 20.3 °F 9.0 °F 15.6 °F 82% 30.17 in 1.0 mi North 10.4 mph 17.3 mph N/A Snow Light Snow
1:12 PM 20.5 °F 9.2 °F 16.3 °F 84% 30.16 in 0.8 mi North 10.4 mph 18.4 mph N/A Snow Light Snow
1:32 PM 21.0 °F 7.6 °F 15.3 °F 78% 30.17 in 1.5 mi NNW 15.0 mph 23.0 mph N/A Snow Light Snow
1:52 PM 21.0 °F 6.6 °F 14.2 °F 75% 30.18 in 2.0 mi NNW 17.3 mph 24.2 mph N/A Snow Light Snow
2:12 PM 21.2 °F 9.5 °F 14.5 °F 75% 30.19 in 3.0 mi North 11.5 mph 21.9 mph N/A Snow Light Snow
2:32 PM 21.2 °F 9.5 °F 15.3 °F 78% 30.19 in 2.0 mi NNW 11.5 mph 19.6 mph N/A Snow Light Snow
3:12 PM 21.2 °F 8.9 °F 14.9 °F 77% 30.19 in 3.0 mi NNW 12.7 mph 19.6 mph N/A Snow Light Snow
3:53 PM 21.6 °F 9.3 °F 14.9 °F 76% 30.20 in 2.5 mi NNW 12.7 mph 24.2 mph N/A Snow Light Snow
4:13 PM 21.7 °F 10.2 °F 14.9 °F 75% 30.22 in 4.0 mi NNW 11.5 mph 21.9 mph N/A Snow Light Snow
5:13 PM 21.7 °F 9.0 °F 15.4 °F 77% 30.26 in 3.0 mi NNW 13.8 mph 31.1 mph N/A Snow Light Snow
6:54 PM 21.7 °F 10.8 °F 15.8 °F 78% 30.29 in 7.0 mi NNW 10.4 mph 20.7 mph N/A Snow Light Snow
7:14 PM 21.7 °F 10.8 °F 14.9 °F 75% 30.29 in 5.0 mi NNW 10.4 mph 23.0 mph N/A Snow Light Snow
9:35 PM 21.2 °F 8.9 °F 15.3 °F 78% 30.31 in 7.0 mi NNW 12.7 mph 23.0 mph N/A Snow Light Snow
11:55 PM 22.1 °F 10.6 °F 16.7 °F 80% 30.28 in 10.0 mi North 11.5 mph 20.7 mph N/A   Overcast